Simultaneous Nadir Overpasses (SNOs) Predictions

Prediction of SNOs between GOES-17 and TERRA Satellite Orbit:

Table of predicted SNOs for the next 14.0 days since TLE Epoch: 7/9/2022
Index Date Time (GOES-17) GOES-17 Lat,Lon TERRA Lat,Lon Distance(km) Time Diff (sec)
1 07/09/2022 07:12:42 -0.01,-137.25 0.80,-133.45 432.06 80
2 07/09/2022 19:31:15 0.00,-137.25 0.32,-138.60 154.00 80
3 07/11/2022 19:21:39 0.01,-137.27 -0.32,-135.64 184.18 80
4 07/12/2022 07:40:22 -0.01,-137.27 -0.79,-140.84 405.93 80
5 07/14/2022 07:28:06 -0.01,-137.27 -0.14,-137.88 68.82 80
6 07/16/2022 07:18:30 -0.01,-137.28 0.51,-134.92 267.91 80
7 07/16/2022 19:37:04 0.00,-137.27 0.60,-140.08 318.85 80
8 07/18/2022 19:27:28 -0.01,-137.27 -0.06,-137.12 18.10 80
9 07/20/2022 19:15:11 -0.00,-137.27 -0.67,-134.16 354.52 80
10 07/21/2022 07:35:39 0.00,-137.28 -0.42,-139.35 235.64 25
